TimeCDT,TemperatureF,Dew PointF,Humidity,Sea Level PressureIn,VisibilityMPH,Wind Direction,Wind SpeedMPH,Gust SpeedMPH,PrecipitationIn,Events,Conditions,WindDirDegrees,DateUTC
12:15 AM,59.0,57.2,94,29.79,3.0,Calm,Calm,-,N/A,,Clear,0,2012-10-02 05:15:00
12:35 AM,59.0,57.2,94,29.79,0.2,Calm,Calm,-,N/A,Fog,Fog,0,2012-10-02 05:35:00
1:35 AM,55.4,53.6,94,29.80,0.2,Calm,Calm,-,N/A,Fog,Fog,0,2012-10-02 06:35:00
1:55 AM,55.4,55.4,100,29.81,3.0,Calm,Calm,-,N/A,,Partly Cloudy,0,2012-10-02 06:55:00
2:15 AM,55.4,53.6,94,29.82,5.0,Calm,Calm,-,N/A,,Clear,0,2012-10-02 07:15:00
2:35 AM,55.4,53.6,94,29.82,0.2,Calm,Calm,-,N/A,Fog,Fog,0,2012-10-02 07:35:00
2:55 AM,53.6,53.6,100,29.82,0.5,Calm,Calm,-,N/A,Fog,Fog,0,2012-10-02 07:55:00
3:15 AM,53.6,51.8,94,29.83,0.2,Calm,Calm,-,N/A,Fog,Fog,0,2012-10-02 08:15:00
3:35 AM,53.6,51.8,94,29.83,1.5,Calm,Calm,-,N/A,,Clear,0,2012-10-02 08:35:00
3:55 AM,53.6,51.8,94,29.83,1.2,Calm,Calm,-,N/A,,Clear,0,2012-10-02 08:55:00
4:15 AM,53.6,51.8,94,29.84,0.8,Calm,Calm,-,N/A,,Mist,0,2012-10-02 09:15:00
4:35 AM,53.6,51.8,94,29.84,0.2,Calm,Calm,-,N/A,Fog,Fog,0,2012-10-02 09:35:00
4:55 AM,53.6,50.0,88,29.84,3.0,Calm,Calm,-,N/A,,Clear,0,2012-10-02 09:55:00
5:15 AM,51.8,50.0,94,29.84,0.2,Calm,Calm,-,N/A,Fog,Fog,0,2012-10-02 10:15:00
5:35 AM,51.8,50.0,94,29.85,0.5,Calm,Calm,-,N/A,Fog,Fog,0,2012-10-02 10:35:00
5:55 AM,50.0,50.0,100,29.85,0.5,Calm,Calm,-,N/A,Fog,Fog,0,2012-10-02 10:55:00
6:15 AM,50.0,50.0,100,29.86,2.0,Calm,Calm,-,N/A,,Clear,0,2012-10-02 11:15:00
6:35 AM,50.0,50.0,100,29.87,7.0,Calm,Calm,-,N/A,,Clear,0,2012-10-02 11:35:00
6:55 AM,51.8,50.0,94,29.88,7.0,Calm,Calm,-,N/A,,Clear,0,2012-10-02 11:55:00
7:15 AM,51.8,50.0,94,29.89,7.0,Calm,Calm,-,N/A,,Clear,0,2012-10-02 12:15:00
7:35 AM,53.6,50.0,88,29.89,8.0,Calm,Calm,-,N/A,,Clear,0,2012-10-02 12:35:00
7:55 AM,53.6,51.8,94,29.89,6.0,Calm,Calm,-,N/A,,Clear,0,2012-10-02 12:55:00
8:15 AM,55.4,53.6,94,29.90,7.0,Calm,Calm,-,N/A,,Clear,0,2012-10-02 13:15:00
8:35 AM,55.4,53.6,94,29.90,8.0,Calm,Calm,-,N/A,,Clear,0,2012-10-02 13:35:00
8:55 AM,55.4,53.6,94,29.91,10.0,Calm,Calm,-,N/A,,Clear,0,2012-10-02 13:55:00
9:15 AM,57.2,55.4,94,29.92,9.0,Calm,Calm,-,N/A,,Clear,0,2012-10-02 14:15:00
9:35 AM,59.0,55.4,88,29.92,10.0,Calm,Calm,-,N/A,,Clear,0,2012-10-02 14:35:00
9:55 AM,59.0,55.4,88,29.93,10.0,Calm,Calm,-,N/A,,Clear,0,2012-10-02 14:55:00
10:15 AM,60.8,55.4,82,29.93,10.0,Calm,Calm,-,N/A,,Clear,0,2012-10-02 15:15:00
10:35 AM,62.6,55.4,77,29.93,10.0,Calm,Calm,-,N/A,,Clear,0,2012-10-02 15:35:00
10:55 AM,66.2,53.6,64,29.93,10.0,NNW,3.5,-,N/A,,Clear,340,2012-10-02 15:55:00
11:15 AM,71.6,51.8,50,29.93,10.0,NW,4.6,-,N/A,,Clear,320,2012-10-02 16:15:00
11:35 AM,71.6,48.2,43,29.93,10.0,North,6.9,-,N/A,,Clear,10,2012-10-02 16:35:00
11:55 AM,71.6,48.2,43,29.92,10.0,North,4.6,-,N/A,,Clear,360,2012-10-02 16:55:00
12:15 PM,71.6,50.0,46,29.92,10.0,NW,3.5,-,N/A,,Clear,310,2012-10-02 17:15:00
12:35 PM,73.4,46.4,38,29.91,10.0,North,3.5,-,N/A,,Clear,350,2012-10-02 17:35:00
12:55 PM,75.2,44.6,34,29.91,10.0,NE,3.5,-,N/A,,Clear,50,2012-10-02 17:55:00
1:15 PM,75.2,46.4,36,29.90,10.0,NNW,5.8,-,N/A,,Clear,330,2012-10-02 18:15:00
1:35 PM,73.4,46.4,38,29.90,10.0,West,4.6,-,N/A,,Clear,280,2012-10-02 18:35:00
1:55 PM,75.2,44.6,34,29.90,10.0,Calm,Calm,-,N/A,,Clear,0,2012-10-02 18:55:00
2:15 PM,75.2,44.6,34,29.89,10.0,North,3.5,-,N/A,,Clear,360,2012-10-02 19:15:00
2:35 PM,75.2,46.4,36,29.89,10.0,Calm,Calm,-,N/A,,Clear,0,2012-10-02 19:35:00
3:35 PM,73.4,46.4,38,29.89,10.0,NW,3.5,-,N/A,,Clear,320,2012-10-02 20:35:00
3:55 PM,73.4,46.4,38,29.89,10.0,WNW,3.5,-,N/A,,Clear,300,2012-10-02 20:55:00
4:15 PM,71.6,48.2,43,29.89,10.0,NW,3.5,-,N/A,,Clear,320,2012-10-02 21:15:00
4:35 PM,71.6,51.8,50,29.89,10.0,Calm,Calm,-,N/A,,Clear,0,2012-10-02 21:35:00
4:55 PM,71.6,51.8,50,29.90,10.0,Calm,Calm,-,N/A,,Clear,0,2012-10-02 21:55:00
5:15 PM,71.6,51.8,50,29.90,10.0,Calm,Calm,-,N/A,,Clear,0,2012-10-02 22:15:00
5:35 PM,71.6,53.6,53,29.90,10.0,Calm,Calm,-,N/A,,Clear,0,2012-10-02 22:35:00
5:55 PM,71.6,55.4,57,29.90,10.0,Calm,Calm,-,N/A,,Clear,0,2012-10-02 22:55:00
6:15 PM,71.6,53.6,53,29.90,10.0,Calm,Calm,-,N/A,,Clear,0,2012-10-02 23:15:00
6:35 PM,68.0,55.4,64,29.90,10.0,Calm,Calm,-,N/A,,Clear,0,2012-10-02 23:35:00
6:55 PM,64.4,55.4,73,29.91,10.0,Calm,Calm,-,N/A,,Clear,0,2012-10-02 23:55:00
7:15 PM,62.6,57.2,82,29.91,10.0,Calm,Calm,-,N/A,,Clear,0,2012-10-03 00:15:00
7:35 PM,62.6,57.2,82,29.91,10.0,Calm,Calm,-,N/A,,Clear,0,2012-10-03 00:35:00
7:55 PM,60.8,57.2,88,29.91,10.0,Calm,Calm,-,N/A,,Clear,0,2012-10-03 00:55:00
8:15 PM,60.8,57.2,88,29.92,10.0,SE,3.5,-,N/A,,Clear,130,2012-10-03 01:15:00
8:35 PM,60.8,57.2,88,29.93,10.0,Calm,Calm,-,N/A,,Clear,0,2012-10-03 01:35:00
8:55 PM,60.8,57.2,88,29.93,10.0,Calm,Calm,-,N/A,,Clear,0,2012-10-03 01:55:00
9:15 PM,60.8,57.2,88,29.94,10.0,Calm,Calm,-,N/A,,Clear,0,2012-10-03 02:15:00
9:55 PM,60.8,57.2,88,29.95,10.0,Calm,Calm,-,N/A,,Clear,0,2012-10-03 02:55:00
10:15 PM,60.8,57.2,88,29.95,10.0,Calm,Calm,-,N/A,,Clear,0,2012-10-03 03:15:00
10:35 PM,59.0,57.2,94,29.95,9.0,Calm,Calm,-,N/A,,Clear,0,2012-10-03 03:35:00
10:55 PM,59.0,57.2,94,29.95,9.0,Calm,Calm,-,N/A,,Clear,0,2012-10-03 03:55:00
11:15 PM,59.0,57.2,94,29.96,8.0,Calm,Calm,-,N/A,,Clear,0,2012-10-03 04:15:00
11:35 PM,57.2,55.4,94,29.96,9.0,Calm,Calm,-,N/A,,Clear,0,2012-10-03 04:35:00
11:55 PM,57.2,55.4,94,29.96,3.0,Calm,Calm,-,N/A,,Clear,0,2012-10-03 04:55:00